Wind_Speed
14 13 14 16 16 16 15 14 14 14 14 14 14 14 15 14 13 13 15 14 14 14 13 13 12 10 10 9 9 9 10 9 9 9 8 6 6 6 3 4 7 6 6
17 14 15 16 16 15 15 14 15 15 14 14 14 14 14 13 12 12 12 12 12 12 12 11 10 10 9 8 9 10 10 9 9 9 8 7 7 7 8 8 6 6 6
17 16 16 16 16 16 15 14 14 14 13 13 13 12 11 11 10 10 10 10 9 9 8 8 8 7 7 6 6 8 10 10 10 10 10 8 6 7 9 7 5 5 5
17 16 15 15 14 14 15 15 15 15 15 15 14 14 14 13 12 11 9 8 7 7 6 5 5 4 5 5 4 5 8 9 9 11 10 10 7 7 7 7 5 5 5
16 14 15 15 15 16 16 16 16 16 17 17 16 14 13 11 9 7 5 4 4 4 4 4 3 3 3 3 2 4 6 8 10 11 10 8 10 7 5 4 5 6 6
16 14 14 15 15 16 16 16 16 16 16 15 13 14 13 12 11 10 7 2 3 4 4 3 2 3 4 5 4 2 3 6 10 9 10 8 8 8 4 4 3 5 6
15 13 13 13 14 15 15 15 15 15 15 14 12 12 13 13 12 12 11 10 5 4 3 2 3 5 6 6 6 4 2 5 6 10 10 8 7 9 4 5 4 4 6
12 13 13 15 14 15 15 15 15 15 15 14 14 14 14 14 12 12 13 15 14 11 8 7 7 8 8 8 6 4 4 2 5 7 8 9 7 9 8 7 5 6 6
9 13 14 14 14 16 16 16 16 16 16 18 17 15 13 12 12 11 13 14 14 13 12 10 10 9 7 7 7 7 5 3 2 6 9 7 10 13 10 10 8 8 10
14 13 13 14 16 16 17 17 16 17 17 14 11 9 8 10 12 12 12 12 13 14 13 12 10 8 8 8 7 5 5 4 3 6 3 6 11 15 13 9 9 11 11
14 14 16 17 17 17 17 17 18 18 14 9 7 9 10 10 11 10 10 12 12 10 9 7 8 8 9 8 8 7 10 5 4 6 7 7 10 11 11 11 11 12 13
15 16 16 20 20 20 19 18 16 13 10 13 14 14 11 8 9 11 11 10 10 9 9 7 7 7 9 9 6 7 12 6 5 3 1 4 2 4 6 10 12 12 13
13 17 21 25 24 22 19 17 17 13 10 12 14 12 11 11 10 8 11 13 9 9 7 9 9 7 7 8 4 5 7 2 5 2 4 4 3 3 4 6 8 10 12
14 19 22 22 17 15 13 11 11 8 8 9 11 9 9 8 9 12 11 9 8 6 10 11 10 11 8 3 3 6 8 8 2 4 4 5 5 8 10 13 7 7 9
16 18 19 17 12 8 5 6 9 8 5 4 8 11 8 8 7 7 6 4 3 5 7 8 7 8 5 6 6 5 4 4 4 6 6 5 3 5 9 7 5 5 3
18 19 17 17 13 14 10 10 9 5 3 5 5 10 9 6 6 4 3 2 4 4 5 7 6 6 5 1 3 5 1 2 3 3 3 2 2 6 6 4 7 8 8
20 17 16 16 18 17 14 12 9 5 4 5 7 7 7 6 3 4 2 5 10 1 2 9 7 4 5 4 3 5 4 4 4 4 1 2 5 1 3 1 2 4 6
20 17 16 15 20 19 18 15 12 7 3 2 5 9 6 5 11 6 5 8 8 2 6 10 4 3 2 4 6 7 7 8 7 6 3 3 2 5 2 2 5 3 4
20 17 17 17 23 20 20 17 11 9 7 5 7 7 4 4 5 4 6 10 8 7 10 10 4 6 6 6 5 2 10 7 8 7 5 5 4 7 4 5 3 4 6
21 17 15 19 24 23 23 18 14 10 8 5 6 8 1 1 2 7 8 9 10 6 10 9 5 5 2 6 5 1 8 8 7 10 7 9 8 7 7 5 3 5 11
20 19 17 20 21 24 26 18 15 12 7 6 8 5 0 3 1 5 8 8 8 5 13 10 4 2 3 5 5 1 9 4 6 9 9 12 10 9 9 7 3 4 8
22 22 19 20 18 22 22 19 17 12 7 7 9 4 3 3 3 2 9 8 7 9 10 9 5 4 7 7 7 4 5 5 4 10 10 13 11 11 13 10 6 4 5
25 23 23 23 19 22 21 22 17 12 8 11 11 5 4 3 2 2 5 9 7 12 10 8 10 10 7 5 7 3 2 0 2 6 13 13 12 13 15 13 9 8 5
26 20 22 23 21 20 20 25 21 16 14 12 10 7 8 4 4 4 4 9 7 13 12 10 10 10 12 8 4 6 3 3 4 4 2 1 8 15 16 16 11 13 7
28 21 18 22 23 20 22 27 22 18 17 14 11 11 6 4 5 8 6 7 6 10 12 12 11 11 12 11 7 5 4 2 3 3 5 9 5 6 16 18 15 13 10
31 24 20 20 22 22 22 27 24 20 17 17 13 10 8 7 7 9 8 6 4 8 11 13 10 12 12 11 9 8 7 5 6 5 6 9 9 7 9 9 15 12 7
Wind_Direction
156 140 134 129 124 120 118 116 112 108 111 110 109 110 114 116 117 117 123 123 118 111 109 106 109 115 122 140 156 162 153 158 161 162 164 156 159 171 176 170 153 167 157
149 139 130 127 126 123 116 113 111 112 113 111 111 113 116 115 116 120 128 127 122 117 114 110 107 108 112 119 134 159 168 173 168 164 167 157 168 169 183 193 187 166 167
149 141 135 130 126 121 116 113 114 114 117 117 114 110 108 108 109 108 120 133 133 118 111 108 103 106 114 116 123 135 159 172 175 162 160 162 173 188 199 205 206 191 187
145 140 136 130 125 119 117 114 114 117 110 107 107 104 102 102 102 105 109 115 122 125 117 98 95 104 110 119 133 145 150 165 169 164 176 167 173 179 197 204 214 218 205
139 139 137 134 126 120 121 115 109 109 107 105 104 104 100 94 92 94 104 127 141 136 121 119 111 93 87 90 116 148 163 171 175 169 173 177 184 174 176 187 210 230 216
134 136 134 132 126 123 125 117 112 110 108 106 103 95 88 86 79 70 61 80 193 174 156 128 91 65 50 45 50 190 183 187 188 191 186 195 204 206 211 238 236 233 231
133 133 130 131 127 129 124 117 116 113 108 102 97 94 88 82 74 67 60 68 135 150 133 92 70 77 73 62 68 75 172 204 198 197 209 211 224 216 220 244 245 245 241
127 136 132 136 133 131 127 122 116 112 104 99 100 100 92 84 69 62 61 68 77 81 75 72 78 80 73 69 67 57 64 116 184 191 206 217 249 252 242 249 263 263 246
150 139 136 137 134 132 129 122 118 114 109 101 98 97 88 76 66 66 71 73 71 71 71 72 80 84 75 55 47 39 22 5 127 208 220 219 237 242 241 245 253 271 257
136 136 137 133 133 130 127 124 121 115 110 104 101 101 98 85 83 81 77 76 76 74 71 73 70 61 51 36 27 0 322 316 310 275 228 214 239 242 232 230 257 265 260
121 130 134 132 129 127 124 121 119 114 103 92 90 71 73 85 76 79 77 77 86 77 66 61 50 45 44 40 25 354 5 288 289 254 237 246 242 240 233 248 262 254 244
127 136 130 129 126 123 121 120 114 113 103 81 81 84 83 94 89 81 85 73 86 71 64 59 47 38 36 15 15 17 27 28 315 81 139 206 263 298 252 266 264 252 243
128 142 135 133 124 120 116 116 114 115 104 87 91 85 84 80 71 84 72 74 74 61 48 41 36 23 11 5 360 10 21 89 72 71 84 74 29 346 331 308 276 264 257
141 137 137 139 131 124 121 118 116 117 96 81 86 68 82 85 82 74 69 61 54 49 33 25 22 1 329 355 10 1 10 14 71 84 61 51 23 356 355 332 305 283 270
156 145 152 151 151 153 165 171 127 109 100 98 73 78 67 67 62 48 20 36 19 30 32 23 30 13 2 328 320 322 354 6 84 110 82 30 343 326 315 12 38 38 21
172 160 171 168 177 175 189 157 135 101 100 136 88 71 73 82 64 60 110 22 357 344 24 3 2 15 8 28 276 267 279 163 88 93 124 194 353 291 357 55 51 48 41
188 183 189 198 181 185 189 158 146 157 133 137 94 74 69 55 15 347 339 37 20 11 342 356 340 21 45 38 210 215 211 208 188 163 217 306 20 351 23 103 326 5 19
191 196 202 205 194 188 184 176 178 165 146 199 128 87 82 65 50 65 31 6 44 79 343 345 340 1 342 336 338 198 211 209 210 210 285 314 350 332 316 7 346 342 355
198 201 207 214 199 186 184 180 178 154 141 128 119 96 84 95 53 22 39 21 17 8 9 1 358 358 49 4 15 278 217 252 218 236 256 317 313 343 317 18 339 346 6
202 209 210 199 195 192 186 185 180 168 169 188 152 152 146 105 37 19 360 15 22 36 2 17 47 65 5 18 52 60 217 237 252 248 273 317 296 318 303 317 11 43 32
206 206 208 183 182 196 195 198 187 167 188 174 189 167 161 258 295 29 4 348 358 16 10 22 41 350 321 13 16 297 197 239 289 255 286 294 293 302 289 284 322 8 30
209 213 213 204 202 196 195 185 184 195 210 207 186 176 29 51 212 17 355 347 352 13 18 30 57 1 353 9 26 87 175 171 326 246 288 278 281 287 282 268 258 291 327
206 212 219 207 211 202 188 185 196 193 205 170 180 206 284 342 192 307 339 353 20 16 20 31 37 31 31 36 35 63 107 114 323 227 254 260 264 278 292 254 251 264 268
205 213 218 211 213 207 194 193 201 208 209 201 217 224 238 264 234 264 291 351 16 14 29 29 31 30 27 48 51 47 46 276 256 241 234 223 285 277 267 241 241 253 263
202 202 214 215 217 214 210 203 209 221 222 229 221 209 224 256 212 225 260 332 19 19 22 33 28 25 26 30 34 29 355 319 307 280 248 319 356 296 228 239 250 240 253
203 201 205 208 214 213 211 209 217 224 227 227 216 205 230 244 223 240 247 304 4 16 21 20 25 29 27 30 29 24 18 26 1 347 339 360 21 6 200 233 218 236 275
Height
1535 1536 1538 1538 1539 1539 1540 1541 1541 1541 1543 1544 1545 1546 1546 1546 1547 1547 1548 1549 1549 1548 1548 1548 1549 1549 1549 1549 1549 1548 1548 1547 1547 1548 1549 1549 1550 1551 1551 1552 1553 1553 1554
1534 1536 1537 1538 1539 1539 1540 1541 1541 1542 1544 1544 1545 1546 1546 1547 1548 1548 1549 1549 1550 1550 1549 1550 1550 1550 1550 1550 1550 1550 1549 1548 1549 1549 1548 1549 1551 1551 1552 1554 1555 1555 1555
1535 1537 1538 1538 1539 1540 1541 1542 1543 1544 1545 1546 1546 1546 1547 1548 1548 1549 1549 1550 1550 1550 1551 1551 1551 1551 1550 1551 1551 1551 1551 1551 1550 1551 1551 1551 1552 1552 1553 1554 1555 1555 1556
1536 1537 1538 1539 1540 1541 1542 1543 1544 1545 1545 1546 1546 1547 1547 1548 1549 1549 1550 1550 1550 1552 1552 1552 1552 1552 1552 1552 1552 1552 1553 1553 1553 1552 1553 1553 1554 1554 1554 1554 1555 1555 1556
1537 1539 1540 1540 1541 1542 1544 1545 1546 1546 1547 1547 1548 1548 1549 1550 1550 1550 1550 1550 1551 1551 1552 1553 1553 1553 1553 1552 1552 1553 1553 1553 1553 1554 1554 1554 1554 1554 1555 1555 1555 1556 1556
1538 1539 1541 1541 1543 1544 1545 1546 1547 1548 1548 1549 1549 1550 1551 1551 1551 1550 1550 1550 1551 1551 1552 1553 1553 1553 1552 1552 1552 1551 1552 1552 1553 1555 1555 1555 1555 1555 1555 1557 1556 1556 1555
1538 1540 1541 1543 1545 1545 1546 1548 1548 1549 1550 1551 1551 1552 1552 1552 1553 1552 1552 1550 1551 1552 1553 1553 1553 1553 1553 1552 1551 1551 1551 1551 1553 1553 1554 1554 1555 1555 1555 1555 1555 1554 1554
1540 1542 1543 1545 1546 1547 1548 1549 1550 1551 1552 1553 1553 1553 1554 1553 1554 1554 1553 1552 1553 1553 1554 1554 1554 1553 1553 1552 1551 1551 1550 1550 1549 1552 1552 1552 1554 1552 1553 1554 1553 1553 1553
1543 1544 1545 1546 1548 1549 1550 1551 1552 1554 1555 1555 1555 1555 1555 1554 1554 1554 1553 1554 1554 1555 1554 1554 1554 1554 1553 1552 1552 1552 1551 1550 1549 1549 1550 1550 1550 1551 1552 1552 1552 1552 1553
1546 1547 1547 1548 1549 1550 1551 1552 1554 1555 1556 1557 1556 1556 1555 1555 1554 1554 1554 1554 1555 1555 1555 1555 1555 1555 1554 1553 1553 1551 1550 1549 1549 1548 1547 1547 1547 1548 1549 1550 1550 1551 1550
1548 1549 1549 1549 1550 1551 1553 1554 1556 1557 1558 1557 1556 1557 1555 1556 1557 1556 1556 1556 1555 1555 1556 1556 1556 1555 1554 1553 1552 1550 1549 1547 1548 1546 1547 1547 1547 1547 1548 1548 1546 1546 1546
1548 1550 1551 1551 1552 1553 1554 1556 1558 1558 1558 1557 1556 1556 1555 1556 1556 1556 1556 1556 1555 1555 1555 1556 1555 1555 1554 1551 1550 1549 1547 1546 1546 1546 1545 1546 1546 1546 1546 1546 1544 1545 1544
1549 1550 1552 1553 1554 1555 1556 1557 1558 1558 1559 1558 1558 1557 1556 1557 1556 1556 1556 1557 1556 1555 1555 1555 1554 1553 1553 1551 1550 1549 1548 1547 1546 1546 1545 1545 1546 1545 1545 1544 1542 1541 1541
1550 1552 1553 1555 1555 1556 1557 1558 1558 1559 1558 1558 1558 1559 1558 1558 1558 1557 1557 1557 1556 1555 1555 1554 1553 1552 1551 1550 1549 1548 1548 1547 1546 1545 1545 1545 1545 1544 1543 1542 1539 1539 1539
1550 1552 1554 1555 1556 1556 1557 1558 1559 1559 1559 1560 1559 1559 1560 1560 1559 1558 1557 1557 1556 1556 1556 1555 1553 1551 1550 1549 1548 1548 1547 1546 1546 1545 1545 1546 1546 1544 1542 1539 1537 1538 1538
1550 1551 1554 1555 1557 1557 1558 1559 1558 1559 1561 1560 1559 1560 1560 1561 1560 1559 1558 1557 1557 1556 1556 1554 1552 1551 1550 1549 1547 1546 1546 1546 1546 1547 1546 1546 1546 1543 1541 1539 1538 1538 1537
1550 1552 1554 1556 1557 1558 1559 1559 1559 1560 1561 1561 1560 1560 1561 1562 1561 1560 1559 1558 1556 1554 1555 1554 1551 1550 1550 1549 1548 1546 1546 1547 1547 1547 1546 1546 1545 1543 1540 1540 1539 1538 1536
1549 1552 1555 1557 1558 1559 1561 1561 1562 1562 1560 1559 1561 1560 1561 1562 1561 1561 1560 1558 1555 1554 1554 1552 1550 1550 1549 1548 1546 1547 1547 1547 1546 1546 1545 1545 1544 1543 1540 1540 1538 1537 1536
1548 1551 1553 1555 1557 1559 1561 1562 1563 1563 1562 1561 1561 1561 1562 1562 1562 1561 1560 1558 1555 1554 1552 1550 1549 1549 1548 1547 1547 1547 1546 1545 1546 1546 1545 1544 1543 1541 1539 1538 1536 1535 1533
1547 1550 1552 1553 1555 1559 1560 1561 1562 1562 1562 1562 1561 1562 1562 1562 1562 1561 1559 1559 1556 1554 1553 1550 1549 1548 1547 1546 1545 1545 1547 1546 1545 1545 1544 1542 1540 1539 1537 1536 1535 1533 1532
1546 1548 1550 1552 1554 1557 1559 1561 1562 1563 1562 1562 1563 1562 1563 1562 1562 1561 1560 1558 1557 1555 1553 1551 1549 1548 1547 1545 1544 1543 1543 1544 1543 1542 1539 1537 1537 1536 1534 1535 1534 1533 1532
1542 1546 1548 1550 1553 1555 1558 1560 1562 1563 1562 1562 1562 1563 1564 1563 1562 1562 1561 1559 1557 1556 1554 1551 1550 1549 1547 1545 1544 1543 1543 1545 1541 1538 1537 1534 1535 1534 1532 1532 1533 1532 1530
1540 1543 1545 1548 1551 1553 1556 1558 1560 1561 1562 1562 1562 1563 1564 1564 1563 1562 1561 1559 1557 1556 1554 1553 1551 1549 1547 1546 1545 1543 1543 1543 1539 1536 1535 1536 1534 1533 1532 1530 1530 1529 1529
1537 1541 1544 1547 1551 1553 1555 1556 1558 1561 1563 1563 1563 1563 1564 1564 1563 1562 1561 1559 1558 1557 1556 1554 1552 1549 1547 1546 1544 1543 1542 1539 1536 1537 1536 1534 1532 1530 1529 1527 1528 1527 1527
1535 1539 1542 1546 1549 1552 1555 1557 1558 1559 1562 1564 1563 1563 1563 1563 1563 1562 1561 1559 1558 1558 1556 1554 1552 1550 1547 1546 1544 1543 1540 1538 1534 1535 1533 1533 1531 1524 1526 1527 1526 1527 1525
1532 1537 1541 1543 1546 1551 1553 1556 1557 1558 1561 1563 1563 1564 1564 1563 1563 1562 1561 1560 1558 1557 1556 1554 1553 1550 1547 1545 1543 1541 1538 1536 1534 1533 1533 1531 1528 1525 1524 1525 1525 1526 1525